This demonstration page uses our WeatherBlox Daily Observations layout. Learn more.

Left ArrowRight Arrow

34.74481, -87.66753

Hourly Observations for June 1, 2019

Temp ( °F °C ) Dew Point ( °F °C ) Humidity (%) Winds ( mph kmh ) Pressure ( in mb ) Visibility ( mi km ) Precip ( " mm )
12:53 am 00:53 Clear 69 20.6 61 16.1 76 76 WNW 5 7 29.91 1013 10 16 0.00 0.00
1:53 am 01:53 Clear 70 21.1 62 16.7 76 76 Calm 29.91 1013 10 16 0.00 0.00
2:53 am 02:53 Clear 68 20 62 16.7 81 81 WNW 3 6 29.91 1013 10 16 0.00 0.00
3:53 am 03:53 Clear 67 19.4 62 16.7 84 84 Calm 29.91 1013 10 16 0.00 0.00
4:53 am 04:53 Clear 66 18.9 63 17.2 90 90 W 3 6 29.92 1013 10 16 0.00 0.00
5:53 am 05:53 Sunny 65 18.3 62 16.7 90 90 Calm 29.93 1014 10 16 0.00 0.00
6:53 am 06:53 Sunny 67 19.4 63 17.2 87 87 Calm 29.95 1014 10 16 0.00 0.00
7:53 am 07:53 Sunny 74 23.3 63 17.2 69 69 Calm 29.95 1014 10 16 0.00 0.00
8:53 am 08:53 Sunny 79 26.1 60 15.6 52 52 WNW 6 9 29.96 1015 10 16 0.00 0.00
9:53 am 09:53 Sunny 82 27.8 60 15.6 47 47 VRB 6 9 29.95 1014 10 16 0.00 0.00
10:37 am 10:37 Mostly Sunny 84 28.9 59 15 43 43 VRB 6 9 29.94 1014 10 16 0.00 0.00
10:53 am 10:53 Sunny 85 29.4 57 13.9 39 39 NW 7 11 29.95 1014 10 16 0.00 0.00
11:53 am 11:53 Partly Cloudy 85 29.4 58 14.4 40 40 VRB 3 6 29.94 1014 10 16 0.00 0.00
12:53 pm 12:53 Mostly Sunny 86 30 57 13.9 37 37 WNW 8 13 29.92 1013 10 16 0.00 0.00
1:53 pm 13:53 Mostly Cloudy 88 31.1 59 15 38 38 NW 7 11 29.91 1013 10 16 0.00 0.00
2:53 pm 14:53 Mostly Sunny 90 32.2 55 12.8 31 31 NNW 7 11 29.90 1013 10 16 0.00 0.00
3:53 pm 15:53 Partly Cloudy 88 31.1 56 13.3 34 34 WNW 8 13 29.89 1012 10 16 0.00 0.00
4:53 pm 16:53 Sunny 89 31.7 55 12.8 31 31 NW 12 19 29.89 1012 10 16 0.00 0.00
5:53 pm 17:53 Sunny 87 30.6 57 13.9 36 36 NNW 5 7 29.88 1012 10 16 0.00 0.00
6:53 pm 18:53 Mostly Sunny 85 29.4 58 14.4 40 40 NW 6 9 29.88 1012 10 16 0.00 0.00
7:53 pm 19:53 Sunny 80 26.7 59 15 49 49 WNW 5 7 29.88 1012 10 16 0.00 0.00
8:53 pm 20:53 Clear 74 23.3 61 16.1 64 64 Calm 29.87 1012 10 16 0.00 0.00
9:53 pm 21:53 Clear 71 21.7 62 16.7 73 73 Calm 29.88 1012 10 16 0.00 0.00
10:53 pm 22:53 Clear 70 21.1 62 16.7 76 76 Calm 29.88 1012 10 16 0.00 0.00
11:53 pm 23:53 Clear 69 20.6 62 16.7 78 78 Calm 29.88 1012 10 16 0.00 0.00

Powered by AerisWeather